Find Starlink 34405

NORAD ID: 64704 Int'l Des: 2025-142 Owner: SPXS Country: US Constellation: starlink operational
LEOCIRCULAR

現在のビュー

3D地球を読み込み中...

About Starlink 34405

Starlink 34405 (NORAD 64704) is a starlink constellation satellite (v2 mini) launched Jun 28, 2025 by SPXS of US. It operates in LEO, CIRCULAR orbit with a mass of 575.00 kg.

次回通過

Passes for default location (London). Set your location on the main map for personalized predictions.

高度履歴

Loading altitude history...

軌道要素

1 64704U 25142J 26262.18434909 .00011143 00000-0 39147-3 0 9998
2 64704 70.0009 184.6278 0003221 269.6100 90.4706 15.29581815 68529
Epoch: Sep 19, 2026 • Age: 38 hours

現在のステータス

高度 490.5 km
遠地点 / 近地点 N/A
速度 7.63 km/s
衛星直下点 69.48°N, 7.95°E
打ち上げ日 Jun 28, 2025
運用期間 1.2 years
タイプ internet

技術仕様

分類 Payload
質量 575.00 kg
乾燥質量 530.00 kg
長さ 0.30 m
スパン 29.00 m
形状 ? Box + pan
製造者 SPXS
バスタイプ Starlink V2MO
フェーズステータス In Orbit
所有者/国 SPXS/US

Most Searched